Wind_Speed
22 21 21 21 21 21 21 20 20 19 19 18 18 18 18 17 16 16 16 16 16 16 16 16 18 19 19 20 21 20 19 17 18 19 13 6 13 20 21 23 24 23 23 22 21 20 19 18 14 12 11 11 8 2 1 1 6 15 13 12 10 6 6 3 3 3 6 7 2 10 14 10 12 13 13 13 15 16 12 11 10 8 8 13 17 18 19 20
22 22 22 22 22 21 21 21 20 20 19 19 19 18 18 18 17 16 15 15 15 16 16 16 16 17 18 19 20 20 19 18 18 17 13 10 14 18 18 20 22 22 22 21 21 20 19 17 13 13 13 12 9 3 2 2 9 18 15 13 11 6 6 2 2 2 3 2 4 12 10 8 12 12 12 17 17 14 13 15 14 13 13 15 18 19 19 19
23 23 22 22 22 22 22 21 21 20 20 19 19 19 18 18 18 17 16 15 15 15 15 15 15 16 17 18 19 19 18 17 16 14 12 10 12 14 16 18 20 20 21 20 19 20 19 16 13 13 13 13 9 5 9 9 10 20 18 12 6 1 4 8 7 4 3 4 7 9 9 9 12 10 14 19 16 16 18 19 18 18 14 15 19 18 19 19
23 23 23 23 23 23 22 22 22 21 20 20 20 19 19 18 18 17 16 16 16 16 15 15 15 16 16 17 17 18 18 16 15 12 9 7 8 12 14 17 18 19 19 19 19 20 20 16 13 12 11 12 9 7 15 16 14 19 21 14 4 3 4 9 8 5 4 8 9 9 11 10 8 11 17 16 14 19 22 20 18 18 15 15 19 18 18 19
23 23 23 23 24 24 23 23 23 22 21 21 20 20 19 19 18 18 17 17 17 16 15 15 15 15 16 17 17 17 16 14 11 8 4 3 6 10 13 15 17 18 18 19 20 21 21 17 12 10 12 12 11 11 12 14 15 20 22 14 6 6 5 6 3 9 6 10 10 9 10 10 8 11 16 12 15 24 23 20 14 13 15 13 17 18 17 18
22 22 23 23 23 24 24 24 23 23 22 22 21 21 20 20 19 19 18 17 18 17 16 15 15 15 16 17 17 16 15 11 10 9 5 2 3 6 10 13 15 17 18 20 21 22 24 19 16 16 18 17 15 16 14 11 14 20 20 13 11 11 3 1 4 5 9 12 10 10 10 11 8 10 14 9 15 25 21 19 10 9 13 11 15 18 17 19
20 21 22 22 23 23 24 24 24 24 23 23 22 22 21 21 20 19 19 19 18 18 17 16 15 15 15 18 17 16 16 11 9 12 10 6 4 4 8 12 15 17 18 20 21 21 24 22 20 21 21 20 17 17 18 16 16 19 20 16 15 14 5 3 6 9 12 12 7 10 11 11 7 9 12 6 15 25 20 19 10 7 12 13 15 16 17 19
19 20 21 21 22 22 23 23 23 23 23 23 23 23 22 21 21 20 20 20 20 19 18 17 16 15 15 17 18 18 15 9 7 12 12 10 10 8 8 11 15 18 18 19 20 20 22 24 23 21 21 22 18 16 13 13 16 18 21 23 19 15 9 5 7 11 16 12 5 8 9 10 10 10 9 8 16 22 20 18 10 8 12 15 15 15 18 18
19 19 19 20 21 21 22 22 22 23 23 23 23 23 23 22 22 21 21 21 21 21 19 19 18 17 17 17 20 18 11 9 10 11 11 12 12 10 10 12 15 18 19 19 19 20 21 24 24 23 21 20 19 19 16 14 17 17 14 16 18 20 14 6 6 10 16 13 9 11 9 10 11 10 8 10 17 18 18 15 10 8 11 14 16 16 18 18
20 20 19 20 20 20 21 21 21 22 22 22 23 23 23 24 23 22 21 21 22 22 21 21 19 19 19 18 20 14 6 8 10 10 12 13 12 10 11 14 16 18 19 19 20 21 22 23 22 21 20 19 19 21 21 20 19 18 14 11 16 22 16 10 4 8 16 15 13 13 11 12 10 10 13 15 16 17 17 14 12 10 9 14 17 16 18 17
21 20 20 20 20 20 20 20 20 20 21 21 22 22 23 24 24 23 22 22 23 23 22 22 22 22 21 21 20 11 5 5 5 9 13 15 11 7 10 13 15 16 19 19 20 20 21 22 20 17 19 20 21 21 22 24 21 20 21 19 15 17 17 15 9 8 15 18 14 10 11 13 8 9 16 17 17 17 16 14 12 10 10 13 15 15 17 16
21 21 20 20 20 20 20 20 20 20 20 20 20 21 22 23 24 24 23 23 24 24 23 23 24 23 24 25 16 6 7 8 7 10 12 13 11 6 7 12 14 15 18 19 19 19 20 22 22 19 20 18 19 21 21 22 21 20 20 21 18 19 20 20 16 8 14 21 16 10 14 16 10 11 18 19 17 16 15 14 12 11 11 12 13 15 17 16
22 21 21 21 21 21 21 20 20 20 19 19 19 20 21 21 23 24 23 23 25 25 24 25 25 25 27 21 6 5 12 11 12 16 14 11 15 13 7 10 14 14 15 18 19 18 19 22 23 21 22 19 18 20 19 18 18 17 14 15 19 21 20 18 18 10 13 20 18 16 19 19 13 12 18 21 20 18 16 16 14 12 12 14 13 14 17 16
23 23 22 21 21 22 22 21 20 20 19 18 19 19 19 20 21 23 22 23 25 26 25 26 26 27 29 15 3 9 14 14 16 18 18 16 17 18 14 9 12 15 14 17 18 18 16 18 21 21 22 22 20 18 18 18 18 18 18 17 19 23 22 17 20 15 14 19 19 17 17 19 14 12 17 22 21 20 20 19 17 14 14 16 14 13 15 16
24 23 23 22 22 22 23 22 21 20 19 18 19 19 19 19 21 21 22 23 24 25 25 27 27 29 31 17 9 14 17 18 17 13 16 19 17 17 18 14 11 16 17 17 18 19 17 16 18 21 23 23 21 19 20 21 21 20 21 20 17 20 20 15 20 20 16 19 19 15 15 18 16 14 19 22 21 22 22 21 18 16 16 17 16 14 14 16
23 23 24 23 23 23 24 23 22 21 20 19 19 18 18 20 20 20 22 22 23 24 24 26 28 30 28 18 12 13 15 16 12 9 15 17 14 16 20 18 12 14 16 16 18 20 20 20 19 20 21 22 22 22 22 22 23 21 19 21 19 19 19 17 18 21 19 19 19 16 14 17 18 17 20 22 21 23 25 21 19 18 18 19 18 16 15 16
24 24 23 23 23 23 24 24 23 22 20 20 20 18 17 20 22 20 21 22 23 23 24 25 28 31 25 16 14 11 10 13 12 13 16 15 14 17 20 19 14 11 12 13 15 18 19 21 21 22 22 23 23 22 22 24 25 22 20 22 23 22 22 19 16 21 20 20 20 17 15 15 17 17 21 23 20 23 26 21 20 21 20 20 19 17 17 17
24 24 23 24 24 23 24 24 24 23 21 21 22 20 18 21 23 21 21 23 23 23 24 25 28 29 20 11 14 10 5 8 12 12 13 14 13 16 20 18 12 9 11 14 15 17 19 20 21 23 25 26 26 26 27 28 26 24 21 23 25 24 23 21 19 21 19 22 22 18 16 15 15 16 22 25 20 22 26 23 21 22 23 21 20 19 17 17
25 24 23 23 23 24 24 24 24 24 23 21 22 22 21 22 22 22 24 25 24 23 22 23 27 28 19 8 8 7 2 4 9 9 8 12 12 15 19 15 12 12 16 18 19 20 20 21 23 27 29 29 30 31 31 29 25 24 24 25 25 23 22 21 19 18 16 22 24 20 18 17 18 17 20 25 22 21 25 25 22 22 24 23 21 20 18 16
26 25 24 22 22 24 25 25 24 24 24 22 21 21 23 25 23 22 26 26 25 24 22 23 27 29 24 16 10 8 5 2 10 10 9 13 13 14 19 17 15 17 21 22 21 21 21 24 28 32 33 30 29 30 30 28 26 26 26 26 24 23 24 21 18 18 17 20 23 21 18 20 22 17 17 24 24 22 26 26 24 24 26 25 24 22 20 17
28 27 25 23 22 23 25 25 24 25 25 23 22 22 23 26 26 25 28 28 25 26 26 25 27 30 26 19 18 15 10 8 14 14 14 15 12 13 18 20 20 23 25 23 21 20 22 30 33 33 31 28 26 26 28 28 27 29 29 29 28 26 26 23 21 21 20 21 21 21 20 19 21 17 15 24 26 24 26 27 25 26 26 26 26 24 22 19
29 28 27 25 23 22 24 25 25 25 25 24 24 22 22 25 26 27 30 31 24 24 28 25 25 30 27 20 22 21 19 21 18 16 18 18 16 17 18 21 24 25 25 23 23 24 27 34 34 29 27 26 26 25 27 30 29 29 30 31 32 31 28 25 22 24 25 25 22 21 23 21 21 20 17 23 29 26 24 27 27 27 28 28 27 26 24 21
30 30 28 27 24 22 23 24 24 25 25 25 25 23 24 25 24 25 30 34 28 23 26 27 26 27 27 24 21 24 26 27 23 20 22 22 20 19 19 21 23 24 24 25 27 30 32 32 29 27 25 25 27 27 27 29 32 32 32 32 33 33 30 25 19 22 25 27 25 21 22 22 22 23 20 23 27 26 23 25 27 27 28 28 29 28 25 24
31 31 30 29 26 23 23 24 23 24 25 25 26 26 25 23 23 25 28 35 35 26 21 23 26 27 26 22 19 26 32 30 26 24 25 26 23 21 22 21 21 24 26 27 28 32 33 28 23 23 25 27 28 29 29 31 34 34 34 34 33 33 30 28 22 19 23 24 24 23 21 22 24 24 23 24 25 26 25 25 27 28 27 28 29 29 27 25
31 32 32 30 29 25 23 24 23 23 24 25 27 25 23 21 21 25 27 32 37 31 24 23 24 25 21 20 23 27 31 34 32 27 26 29 25 23 24 22 22 26 27 27 28 31 33 27 22 21 24 28 30 31 32 33 34 34 34 36 35 32 30 30 26 21 24 23 23 23 17 18 27 28 26 28 30 29 27 25 28 29 27 28 30 30 28 26
31 32 32 32 32 28 24 24 23 23 24 25 25 21 20 20 18 22 24 27 34 32 26 23 20 19 18 22 26 25 27 34 36 30 28 27 27 25 24 24 26 27 26 26 27 30 31 27 26 26 25 27 31 33 33 33 34 34 33 34 34 33 32 32 30 24 22 23 25 27 18 13 24 30 28 29 32 33 29 27 30 30 28 29 30 30 30 28
31 31 31 31 33 32 25 23 24 24 24 25 24 19 19 19 16 20 19 16 21 20 15 14 12 15 18 18 22 26 25 23 29 35 33 29 27 27 26 26 27 28 25 23 27 30 29 26 28 30 29 29 32 35 33 32 35 36 33 29 29 32 34 34 36 31 22 20 25 33 29 18 21 28 28 29 30 31 32 31 32 33 31 30 31 31 31 30
30 30 31 28 30 33 28 23 23 24 24 24 22 20 18 16 15 14 9 5 5 4 6 9 7 11 15 15 20 28 22 13 18 29 31 33 31 29 31 30 28 28 26 25 29 30 26 27 28 29 32 33 33 33 31 32 35 36 32 27 27 30 32 33 36 36 30 22 20 33 35 19 16 26 26 27 31 32 34 34 35 36 33 32 33 33 32 30
30 30 31 28 27 31 29 25 25 23 23 23 21 19 17 14 13 9 3 4 7 5 9 9 7 10 14 16 19 24 22 15 12 14 18 31 37 34 33 32 28 26 25 27 31 28 24 27 27 28 33 35 33 30 29 32 34 33 30 28 28 27 30 32 33 36 34 23 17 30 36 19 13 28 31 28 33 35 35 36 37 37 33 33 35 34 33 32
30 29 31 30 26 27 26 25 27 24 20 20 19 18 16 14 13 7 5 8 7 5 8 10 10 10 12 18 20 22 23 21 14 10 12 23 34 37 32 29 27 27 27 28 30 30 27 25 25 28 31 32 31 28 28 31 31 31 29 29 31 29 31 31 31 35 27 15 14 25 39 29 13 27 38 34 35 37 36 39 39 38 35 35 38 37 35 34
32 30 30 30 28 26 22 21 26 24 18 18 18 17 17 16 14 9 6 14 13 10 10 11 12 14 17 20 24 25 25 25 22 18 18 22 31 39 35 28 28 30 30 31 31 31 30 28 28 29 27 27 29 29 28 28 29 31 29 30 31 29 30 29 27 28 16 8 16 20 32 35 17 23 38 37 36 36 35 38 40 40 38 39 41 39 35 35
33 32 30 29 29 27 21 19 23 22 18 17 15 17 17 14 17 21 15 10 10 11 13 14 13 18 21 22 26 28 29 30 28 25 25 28 34 41 41 36 34 32 30 34 33 31 33 35 33 29 27 26 27 28 28 28 29 32 33 32 25 16 16 16 14 13 7 11 27 28 25 27 21 24 32 34 37 36 33 35 37 38 37 39 41 38 34 35
34 34 31 28 29 27 22 19 20 20 18 17 15 18 19 11 16 32 31 18 9 4 6 11 14 16 19 24 27 27 29 31 29 27 28 30 33 40 44 41 37 32 29 31 32 29 29 32 34 32 30 29 30 30 29 29 31 35 37 35 22 8 5 6 5 5 6 12 27 34 28 22 23 26 25 27 33 33 31 31 31 33 34 35 37 36 34 36
35 36 33 28 27 27 23 19 19 20 17 17 18 19 22 18 17 25 28 26 23 15 8 10 12 14 18 25 28 27 29 31 29 28 31 32 34 38 42 42 39 33 28 27 29 29 23 22 31 36 34 31 32 34 32 28 28 33 37 35 28 19 10 7 5 5 6 9 18 26 22 15 21 29 28 29 31 30 30 30 28 29 31 33 34 36 36 36
38 37 34 29 26 25 24 19 17 19 18 18 21 24 29 31 25 18 18 19 20 21 19 17 21 23 22 24 28 29 28 28 28 30 33 36 37 37 40 44 43 37 32 27 26 29 27 25 28 32 33 31 30 32 33 29 27 30 33 33 35 36 27 14 10 13 12 9 13 20 18 18 24 26 24 25 29 32 29 28 28 28 30 32 34 36 35 33
40 39 35 30 27 24 23 21 17 19 21 20 24 34 42 40 28 18 15 14 13 16 20 24 28 27 25 24 26 29 30 28 27 31 35 37 39 38 37 41 44 42 38 32 26 25 25 27 27 27 28 31 30 28 31 33 28 28 35 40 39 39 33 20 13 18 17 8 12 20 18 18 23 22 21 22 26 32 29 26 28 28 31 34 34 35 34 32
42 41 35 29 24 20 18 18 17 19 23 23 31 42 45 41 33 25 18 15 16 16 18 22 24 22 22 23 24 26 30 30 29 32 36 35 37 40 38 37 39 42 41 36 31 26 22 21 25 29 29 29 30 28 29 35 32 27 34 41 37 30 28 22 11 10 11 5 9 22 24 22 19 15 20 28 29 31 31 30 29 29 32 34 33 34 34 35
42 41 35 25 18 13 12 13 17 20 22 26 36 43 40 37 34 29 25 22 23 23 23 24 23 21 20 21 23 25 28 32 33 33 34 35 36 38 40 38 36 38 40 37 34 29 24 22 22 27 30 29 29 29 31 35 37 32 27 27 29 25 24 25 14 5 7 4 4 15 24 27 27 20 19 28 33 34 33 34 34 32 34 35 34 34 34 35
41 40 32 20 12 8 4 9 14 17 23 28 36 38 35 34 31 26 26 29 32 32 32 29 24 22 24 24 23 24 26 31 35 34 33 34 35 35 38 40 37 36 37 38 38 33 26 23 22 24 29 30 34 36 36 34 36 36 30 25 29 27 25 30 27 15 8 3 4 10 12 18 28 29 23 24 33 37 34 35 36 34 36 39 38 36 34 34
37 37 27 12 14 15 10 12 15 20 27 30 31 31 29 27 25 22 21 24 29 33 34 33 28 26 30 30 26 25 27 27 31 37 36 32 33 34 36 39 38 36 36 37 39 38 33 26 22 23 26 30 39 43 39 35 35 38 38 37 37 31 25 26 31 31 20 5 3 5 6 17 29 30 26 26 30 35 35 35 35 36 38 40 38 34 32 31
33 33 23 10 14 19 16 19 23 25 29 29 29 31 30 27 25 24 21 21 26 31 33 32 31 32 34 34 32 28 27 28 27 31 37 36 33 31 31 36 39 35 35 39 41 41 40 32 25 26 27 29 35 40 40 38 37 39 42 45 44 37 28 17 15 29 34 20 11 6 3 15 28 26 25 27 26 30 37 38 36 37 39 38 36 34 33 31
31 32 25 14 14 19 21 25 26 25 27 29 27 27 27 26 25 25 23 23 25 30 33 34 33 33 34 36 37 34 31 32 32 27 29 34 36 34 28 30 37 37 35 41 44 42 39 34 29 30 32 29 26 30 37 39 39 39 40 43 43 38 34 22 9 18 29 26 24 19 9 13 25 24 20 23 24 27 34 39 36 36 38 37 35 35 34 32
28 30 25 15 15 22 25 29 29 28 27 26 24 25 26 25 25 25 25 24 24 25 29 35 37 34 32 32 33 35 34 33 36 34 29 27 31 36 34 29 31 36 37 38 40 42 40 35 31 30 33 34 29 28 34 40 40 40 40 41 39 36 38 33 20 17 22 24 23 15 8 15 28 29 26 23 19 21 27 38 36 36 38 36 34 34 33 32
27 28 22 13 13 23 26 29 32 30 26 23 24 27 28 28 28 27 25 24 26 25 25 30 34 34 34 33 32 35 34 33 37 36 30 30 26 25 32 35 34 35 38 38 36 39 41 38 32 22 17 24 27 24 27 39 44 40 37 37 36 35 36 34 30 26 21 26 29 15 6 18 28 32 35 28 14 11 25 36 33 34 37 32 30 33 34 32
26 26 20 11 10 19 21 22 26 28 25 24 27 28 29 29 28 27 27 26 25 25 24 25 26 28 31 32 34 37 35 34 39 38 32 33 32 23 22 30 36 37 36 36 35 36 40 42 39 26 12 11 16 16 19 32 42 40 35 34 34 34 34 33 35 30 20 23 32 23 14 20 25 26 35 35 20 12 21 31 32 30 29 26 25 29 32 32
24 23 19 14 9 16 18 15 18 24 24 24 27 27 27 27 25 24 25 22 17 16 21 23 23 23 23 23 29 35 34 30 34 41 39 34 34 32 27 24 29 35 36 36 36 37 40 43 45 42 32 24 25 27 26 26 33 39 37 35 34 33 33 34 35 33 28 23 26 28 24 24 26 26 29 34 30 20 17 25 31 28 24 24 25 24 26 30
20 20 19 19 14 13 17 16 14 18 19 19 22 23 23 25 26 26 27 24 18 17 22 23 20 19 19 18 20 27 32 28 25 30 35 35 36 38 37 32 23 23 32 38 39 38 39 40 43 47 46 38 32 33 33 29 28 35 37 36 36 34 33 35 36 39 37 25 20 28 30 26 28 31 28 28 32 29 22 19 26 28 24 24 26 25 25 29
19 20 18 19 18 17 17 18 18 19 20 19 20 20 21 24 27 28 29 32 31 26 26 28 24 19 19 17 17 17 24 25 21 17 20 30 38 39 39 38 26 18 22 35 45 45 37 35 38 42 45 44 37 32 33 34 30 29 33 35 36 37 36 37 37 39 39 32 30 34 31 25 26 28 26 25 27 30 26 19 21 25 21 17 22 26 26 31
19 21 19 18 20 22 22 21 21 24 26 24 22 22 20 21 23 24 24 29 36 32 26 29 33 30 26 22 18 16 18 19 17 15 15 20 29 30 33 37 35 24 16 22 41 51 38 27 29 34 36 40 41 36 34 34 31 27 30 34 36 37 38 38 36 35 35 35 38 38 34 31 30 27 25 23 20 22 24 19 16 20 21 17 18 20 20 25
19 20 20 21 22 22 22 23 23 25 26 24 23 23 21 19 20 22 21 22 28 29 24 26 33 37 36 32 25 20 15 16 19 19 18 21 23 21 27 34 36 28 15 10 20 42 43 28 23 28 27 29 38 41 39 38 35 31 30 31 35 37 37 37 36 34 35 34 34 36 37 36 34 32 31 28 25 24 23 18 14 17 22 20 17 16 14 16
19 19 20 22 24 22 21 21 20 22 23 22 21 20 20 20 18 19 22 21 19 20 24 26 31 36 38 39 36 29 23 20 23 22 20 23 25 22 25 34 31 25 20 8 7 21 38 31 23 24 20 18 26 34 40 44 39 37 37 33 31 34 36 39 39 35 35 34 31 32 36 36 34 33 32 32 33 32 28 26 23 21 20 18 17 18 16 13
19 20 19 21 24 23 22 21 20 21 21 19 18 18 19 21 19 16 21 22 19 15 17 22 27 32 35 38 39 38 33 28 27 26 22 24 28 26 28 35 28 24 22 15 10 14 25 31 27 23 16 15 19 21 30 38 32 33 43 40 31 29 28 29 34 36 34 33 31 29 30 32 30 28 29 33 38 41 37 30 26 23 21 22 21 22 25 25
Wind_Direction
279 279 280 281 281 283 284 285 286 286 288 289 290 291 292 295 298 301 303 302 301 298 293 288 284 283 280 280 280 281 279 273 270 268 275 284 240 228 223 221 223 227 232 237 241 245 249 253 258 260 262 269 277 284 126 168 248 257 270 293 303 335 347 14 90 78 112 130 161 152 151 150 152 154 153 150 150 160 160 148 161 187 193 170 160 159 160 159
278 278 278 279 280 280 281 282 282 283 285 286 287 289 290 292 293 296 299 300 301 300 298 295 290 287 285 283 282 282 281 278 273 270 276 276 244 228 217 217 219 222 228 232 238 242 244 250 251 254 257 261 269 265 258 226 217 235 250 271 273 298 308 287 105 104 121 137 158 163 169 165 161 159 149 147 154 162 154 154 165 176 173 163 162 165 166 165
277 276 277 277 278 279 279 279 279 280 281 283 284 286 288 289 291 292 294 296 297 298 299 299 297 292 289 286 285 285 284 282 279 278 282 274 245 229 215 211 214 215 221 224 231 235 237 242 238 244 250 251 255 240 254 254 226 230 237 250 245 17 307 279 256 188 146 213 178 174 188 162 159 168 158 153 157 161 162 166 177 183 171 160 167 169 172 170
277 277 277 277 278 278 278 278 278 278 279 280 281 283 285 286 288 289 290 291 292 294 296 298 298 297 295 291 289 287 289 290 282 277 280 267 226 220 214 209 210 209 212 215 222 228 230 231 230 241 247 245 246 242 245 243 239 231 231 243 218 159 296 297 255 171 160 209 174 165 182 170 170 175 170 169 166 168 181 194 205 204 181 165 169 170 177 173
280 279 278 277 277 277 277 277 277 278 277 277 278 279 282 283 286 287 287 288 287 289 291 294 296 297 297 294 292 290 292 294 284 275 262 241 207 205 207 207 209 205 204 208 215 221 224 216 205 225 242 241 240 248 244 234 235 229 232 245 225 212 299 327 173 136 179 207 160 162 187 181 183 179 181 200 188 177 190 205 221 217 194 180 173 172 178 175
285 282 280 278 276 276 276 276 276 276 277 277 277 277 279 280 282 284 285 286 285 286 287 289 290 292 296 295 294 292 289 284 281 287 282 247 210 199 203 204 207 206 202 205 210 217 223 213 187 198 225 236 236 238 240 239 228 222 230 238 223 226 273 310 184 164 202 199 159 165 191 179 182 190 186 216 200 183 192 206 217 225 205 187 179 177 176 177
291 288 285 282 279 277 276 275 274 274 275 275 276 276 277 277 279 281 283 284 284 284 283 284 285 287 289 290 293 289 287 285 274 277 279 267 249 224 212 205 204 208 206 206 209 212 219 216 196 191 209 229 241 238 236 242 238 232 239 246 232 222 221 167 217 244 202 185 161 163 193 190 180 180 180 217 197 184 192 203 222 241 202 181 183 183 176 178
296 292 290 287 284 282 279 277 275 274 274 273 274 274 274 275 276 277 279 281 282 282 282 282 281 281 281 285 288 287 288 289 246 248 266 271 263 252 230 213 204 206 208 208 209 212 216 215 206 196 201 217 233 242 246 251 248 246 254 262 243 214 220 178 178 217 198 203 210 165 194 199 184 178 185 207 180 177 190 202 234 242 196 182 183 183 180 179
298 296 293 290 288 285 283 281 278 277 275 274 273 272 273 273 273 274 275 277 278 279 280 279 279 278 277 277 282 288 293 275 253 254 272 278 270 257 233 217 208 204 205 207 206 207 212 210 206 204 206 211 223 235 243 253 250 239 248 263 234 211 214 173 145 203 206 223 206 172 195 191 192 195 177 175 171 181 199 214 243 234 199 183 181 185 185 180
302 300 296 293 291 288 286 284 281 279 277 276 274 273 272 271 271 270 271 273 274 275 276 277 277 275 274 273 275 288 302 280 303 321 304 295 288 271 239 216 207 203 200 204 206 205 209 207 200 204 213 213 220 234 238 245 254 242 244 269 232 219 211 168 145 213 215 221 186 169 191 183 197 200 164 164 181 194 201 220 238 231 212 183 181 185 185 184
303 302 300 297 293 291 289 286 284 282 280 278 276 275 273 272 271 269 268 269 270 271 273 273 274 273 272 270 268 278 292 264 312 314 297 300 294 260 235 219 204 203 201 201 207 207 210 204 188 198 223 222 221 233 239 241 252 251 257 278 256 238 236 210 211 225 209 205 183 168 185 182 198 192 168 170 191 204 207 226 235 227 210 182 185 185 181 188
301 302 301 300 297 294 291 289 287 284 283 280 278 277 274 273 272 270 268 267 268 268 269 270 271 271 269 268 264 268 272 241 216 244 270 296 287 248 221 220 202 198 200 201 204 205 210 201 182 190 214 225 228 231 238 238 246 254 261 282 269 259 260 223 210 221 204 204 197 181 178 183 206 196 179 181 193 207 216 227 226 220 206 187 193 184 179 190
298 299 299 300 299 297 294 292 290 287 285 282 280 278 275 275 273 271 269 267 267 267 267 268 268 269 267 267 255 241 258 248 225 229 239 257 266 270 266 227 206 197 198 200 199 198 206 200 188 195 202 209 222 225 234 235 241 249 251 279 272 267 270 222 207 228 223 214 198 180 178 185 208 205 189 192 197 205 211 213 212 214 207 197 201 189 181 191
297 296 296 298 298 298 296 295 293 290 288 285 283 279 278 276 273 272 270 267 266 265 266 267 268 269 266 259 208 245 247 242 238 236 243 239 238 257 272 252 214 207 207 202 193 188 200 205 200 204 207 208 212 219 233 235 241 250 251 261 259 262 268 232 217 232 226 212 192 179 185 188 197 201 198 198 197 204 205 201 206 213 209 202 204 197 186 192
295 295 295 295 296 296 296 295 295 293 291 289 284 282 281 278 275 274 271 267 265 265 265 266 267 267 267 264 256 254 245 244 248 244 251 245 228 234 255 264 232 211 211 206 195 184 185 203 214 216 216 213 213 224 236 239 243 248 255 254 243 251 261 247 230 222 204 197 193 191 193 192 193 198 208 202 191 204 206 199 206 213 211 205 205 203 192 194
292 292 293 293 293 294 295 295 296 295 295 293 287 285 284 280 276 273 271 269 266 265 263 264 265 264 268 275 269 254 245 248 251 241 243 244 229 222 239 255 249 220 213 209 200 191 185 191 212 225 226 221 219 227 235 245 247 240 246 247 240 240 241 257 245 208 192 190 189 197 198 194 194 196 212 204 187 200 208 203 206 211 211 208 207 208 199 196
290 289 290 291 291 292 292 293 294 295 296 295 291 289 286 282 278 275 274 271 267 265 262 261 262 263 266 272 270 264 261 254 240 237 242 244 233 217 227 240 238 224 220 221 209 201 198 196 206 217 223 225 222 224 229 239 243 239 240 239 243 243 230 242 229 194 199 199 186 193 203 205 203 198 206 203 188 197 209 208 205 209 211 211 212 212 207 205
289 289 288 288 289 290 290 291 293 293 294 295 293 292 286 279 279 279 275 271 268 264 261 260 260 263 266 263 259 258 289 275 247 243 242 241 234 214 221 227 217 219 225 230 223 210 209 209 212 214 216 220 216 216 221 225 229 234 237 232 239 247 240 237 217 193 201 201 189 192 202 212 207 192 197 203 195 195 208 212 206 209 212 214 219 219 216 212
291 290 288 288 288 288 288 288 290 291 292 294 294 295 290 281 280 280 274 270 268 264 262 260 257 257 252 232 227 208 76 319 243 238 240 238 241 218 210 205 195 213 222 224 223 214 214 214 216 218 216 216 214 212 216 220 224 228 235 235 234 238 245 248 222 194 189 194 191 191 201 205 195 188 198 205 202 198 206 210 207 210 214 218 223 226 227 218
294 292 290 289 288 288 287 286 288 289 289 291 292 293 290 285 282 277 272 271 269 266 260 257 260 261 251 231 207 173 111 312 235 226 235 237 237 214 199 192 194 213 218 219 222 216 214 217 218 220 216 215 217 215 214 219 225 228 237 244 240 231 234 243 225 199 190 194 193 192 203 207 204 210 210 203 201 198 202 207 207 209 215 220 224 231 236 227
295 294 293 290 288 288 287 287 288 288 288 289 289 290 289 288 286 282 277 273 270 269 263 255 257 263 259 236 213 197 169 207 235 235 237 234 223 209 201 194 197 213 217 213 219 221 218 220 220 221 220 217 218 219 217 218 221 228 238 247 250 243 236 236 226 210 204 204 203 202 203 206 213 219 205 197 197 195 199 206 208 209 215 222 224 232 240 235
292 292 292 292 290 288 286 287 288 289 290 289 288 290 289 287 289 291 288 279 265 263 269 262 252 258 265 249 218 208 196 198 210 223 228 221 211 212 209 201 199 208 217 210 211 220 222 224 223 221 223 222 218 219 220 219 220 226 235 245 254 254 252 249 231 212 206 203 201 203 204 208 219 220 203 198 201 201 205 209 209 209 214 221 226 231 237 236
289 289 290 291 291 290 288 286 286 287 288 288 287 286 283 284 290 293 292 288 273 258 264 265 262 258 258 255 226 205 209 205 195 204 218 217 213 213 211 214 212 206 212 213 209 215 222 227 227 221 222 225 223 221 221 222 223 225 232 241 250 252 257 261 238 205 203 201 192 195 205 210 219 220 210 204 206 206 206 209 214 215 217 223 227 231 236 237
289 289 288 288 289 290 290 287 286 284 282 282 282 282 286 292 297 293 289 291 283 267 264 266 264 257 249 254 237 211 216 216 203 199 209 217 217 213 211 213 218 212 211 215 215 218 223 228 233 228 221 222 226 224 221 223 225 226 230 236 243 248 251 259 251 216 206 206 196 194 206 213 213 213 210 205 206 208 205 208 216 219 221 224 226 230 236 240
291 290 289 288 287 286 287 287 285 282 280 278 279 286 295 298 299 295 294 297 289 277 275 271 260 258 251 239 233 224 221 222 216 203 202 219 222 210 209 208 210 217 217 215 219 225 227 223 228 235 226 219 223 226 223 223 228 229 229 231 235 242 247 254 259 234 206 202 199 197 203 212 210 210 212 207 206 211 210 208 214 219 220 221 223 226 232 237
292 291 290 290 288 285 284 285 282 279 278 277 281 288 292 293 294 296 301 303 296 289 285 277 258 252 245 230 228 222 219 228 228 211 197 217 228 213 208 210 212 217 220 219 222 230 233 226 223 229 229 221 220 225 225 222 228 231 228 229 232 239 246 249 255 247 216 202 201 202 203 203 202 208 215 213 213 217 214 207 209 215 217 219 222 226 231 235
294 292 290 289 288 286 281 281 280 276 275 277 281 281 279 283 286 293 305 309 303 303 289 270 248 240 239 234 225 209 213 233 228 216 204 205 220 219 212 213 216 217 214 217 225 229 230 227 224 227 229 226 221 223 225 221 225 229 228 228 230 236 244 247 252 258 246 221 205 200 203 201 195 203 214 217 216 215 213 208 208 211 214 219 224 227 230 234
297 294 291 289 288 287 283 280 276 273 274 275 277 277 274 275 277 285 304 304 297 316 265 253 234 234 231 223 221 216 223 237 222 223 214 200 206 219 220 215 215 221 213 211 225 229 226 225 224 225 228 228 225 224 224 222 225 229 228 229 229 233 240 245 251 259 261 249 212 194 198 203 203 205 209 213 211 210 211 208 207 211 215 218 223 227 229 232
299 297 293 290 287 287 287 284 276 271 272 273 273 272 268 265 265 262 256 263 259 244 250 245 219 230 227 214 220 226 225 218 220 240 225 205 204 212 224 222 213 221 223 218 227 231 229 228 224 223 228 229 228 227 224 223 227 229 229 230 233 236 240 242 246 253 259 255 220 194 192 194 212 209 205 204 207 212 214 210 209 212 214 215 219 223 227 230
299 298 295 293 288 284 287 287 281 275 270 269 266 261 256 250 242 224 212 240 251 265 254 235 222 220 207 203 214 227 221 204 201 227 228 215 210 209 221 231 220 218 226 227 230 231 229 229 227 226 228 228 228 229 225 224 226 227 229 230 236 242 243 245 245 245 252 253 232 211 198 197 207 206 203 204 210 216 217 212 212 213 212 214 216 218 223 228
300 299 297 297 293 287 286 284 281 279 273 265 257 249 246 237 222 205 229 242 243 256 244 235 238 223 208 204 208 218 220 208 201 210 216 209 208 208 212 222 222 219 226 231 232 233 231 230 228 227 228 226 228 230 225 223 225 225 226 227 233 243 245 249 247 237 238 241 244 234 206 202 205 204 206 212 216 218 217 215 217 219 220 219 218 220 222 225
300 298 298 299 297 295 291 280 276 278 273 261 249 238 230 223 222 218 220 239 253 253 239 238 238 221 219 217 211 213 216 215 212 212 213 205 201 207 207 207 211 212 219 227 228 231 232 233 231 227 226 224 226 229 223 219 220 221 225 225 225 231 238 246 248 232 228 238 242 244 229 218 220 217 214 215 214 215 219 222 224 225 227 224 222 224 224 221
300 298 298 298 298 298 294 283 275 272 268 255 239 226 215 210 232 228 224 221 213 194 201 224 228 217 218 217 213 215 217 222 221 209 211 210 203 208 211 209 210 211 214 219 222 227 232 233 233 231 230 225 221 221 220 219 217 216 221 223 219 206 208 228 246 239 235 238 236 238 240 238 236 239 240 231 224 222 223 225 227 227 229 229 227 225 223 219
300 298 298 299 300 299 293 284 273 267 263 249 233 216 209 219 235 233 234 232 231 238 217 205 235 247 237 222 216 217 218 223 224 209 207 210 206 209 212 212 213 215 217 218 219 223 227 227 226 226 227 225 220 216 217 221 219 215 217 221 223 221 216 215 221 227 237 249 240 234 234 234 234 243 253 252 244 233 222 219 221 225 227 229 227 222 220 220
298 298 299 303 301 297 293 286 274 262 254 241 228 213 213 225 229 227 238 237 240 256 251 244 264 273 266 242 223 218 218 221 221 214 212 212 209 209 210 211 213 212 214 218 217 217 225 230 227 225 222 221 220 216 213 218 221 216 216 221 226 226 227 227 226 233 241 250 249 240 236 232 234 240 243 245 238 223 211 207 212 219 220 221 222 219 221 225
295 295 299 307 306 301 296 287 274 258 245 234 223 220 223 228 228 224 233 232 235 260 269 268 268 270 270 257 232 219 218 222 221 215 217 218 215 214 213 213 215 213 211 213 213 212 220 230 229 227 225 219 216 215 211 213 217 213 214 221 223 222 226 231 236 243 245 242 242 245 246 239 237 236 233 239 230 212 203 203 208 215 216 215 216 217 224 229
292 291 296 310 311 308 306 287 265 245 236 228 225 229 233 235 234 230 228 228 230 248 277 280 267 262 267 260 243 227 217 219 220 215 215 218 218 218 216 216 219 219 214 211 214 217 222 233 229 223 224 219 213 216 216 215 215 208 210 220 222 221 227 233 238 239 237 243 236 237 243 245 242 233 233 241 232 211 207 209 207 208 212 214 216 216 223 227
293 289 294 309 307 308 320 287 252 233 226 228 233 237 239 239 238 235 233 235 239 251 271 276 266 259 264 264 253 238 220 213 216 217 216 218 222 221 217 216 220 222 219 213 215 221 227 241 239 222 221 219 210 213 216 215 217 214 212 216 217 217 225 230 232 219 216 240 243 231 237 241 243 243 243 239 225 209 205 205 204 207 210 212 215 217 220 224
295 291 295 302 276 260 279 258 246 233 229 235 240 243 245 246 245 241 239 238 240 252 264 268 266 258 257 267 267 256 239 221 214 217 220 219 223 226 220 216 218 221 221 216 216 218 221 235 244 229 222 216 207 209 212 209 211 216 221 222 218 219 220 220 224 225 214 216 231 233 241 242 240 242 246 235 213 202 201 201 202 208 210 211 214 218 220 224
297 294 295 282 244 237 216 218 230 230 232 239 246 249 252 256 258 256 253 247 243 250 260 266 270 263 259 266 269 266 263 250 226 218 221 223 222 224 223 218 216 217 219 218 217 219 220 229 243 238 229 214 204 205 207 204 203 208 217 224 226 229 228 219 220 222 222 220 200 209 235 241 239 239 243 237 216 207 212 215 210 209 212 213 212 215 222 227
299 295 289 269 253 251 230 218 220 225 234 243 250 256 259 263 265 261 256 252 247 248 256 265 270 267 265 268 264 262 269 272 257 230 222 224 223 221 221 218 216 214 213 215 215 216 220 226 236 241 239 227 213 208 207 206 205 205 211 219 223 228 230 226 215 214 216 220 222 213 225 234 233 236 238 238 236 233 231 228 217 208 210 212 210 215 224 226
298 293 288 280 257 244 233 225 220 223 236 244 249 257 264 265 266 265 262 257 252 250 250 256 262 264 267 269 266 267 272 274 276 264 238 227 224 225 225 218 215 212 210 213 214 213 218 224 229 236 241 239 229 217 211 208 209 210 212 218 223 225 226 228 221 205 208 217 229 235 251 236 228 231 234 235 250 257 237 220 210 205 209 213 215 221 223 218
298 294 293 289 249 233 236 235 226 226 236 247 255 260 264 265 264 268 268 262 260 261 255 253 257 262 266 267 266 270 274 273 272 272 263 250 235 228 228 223 215 211 209 213 215 210 211 219 222 227 237 243 241 233 219 207 205 209 212 217 224 227 225 228 236 228 215 218 227 233 249 237 228 230 236 243 269 277 235 211 204 203 205 209 215 221 221 217
302 299 297 292 239 227 237 241 236 235 240 251 260 261 262 260 258 263 266 262 262 265 264 260 260 263 265 265 267 267 269 271 268 265 267 271 261 235 227 226 221 217 212 212 214 208 204 211 215 214 230 243 245 245 223 202 198 203 208 211 218 226 228 228 237 241 229 221 223 222 222 229 227 230 237 245 269 265 221 209 204 202 201 206 215 221 222 220
305 305 302 292 233 223 241 254 250 247 251 259 264 265 266 262 259 261 261 261 260 261 267 266 259 261 264 264 266 265 263 265 266 264 267 272 266 249 233 227 223 224 221 214 215 215 208 207 210 208 205 216 227 238 222 199 194 200 205 208 212 220 224 226 231 236 234 225 226 226 225 226 225 228 239 244 243 226 212 208 206 206 208 216 224 224 225 224
305 305 303 298 258 224 232 251 259 257 257 265 269 268 265 262 260 258 255 254 256 266 276 269 257 259 266 266 261 256 256 260 260 260 264 271 268 256 245 242 235 227 223 221 218 215 210 207 209 213 215 216 217 226 229 211 196 197 201 205 210 216 220 222 226 231 233 231 232 234 234 232 226 221 230 241 239 232 228 218 210 209 216 222 222 221 220 219
299 297 301 304 293 250 228 224 241 256 256 265 276 272 265 262 259 256 254 253 260 279 276 264 264 274 278 284 276 259 259 262 252 254 260 258 262 259 244 242 252 231 222 229 227 216 209 208 210 214 217 221 222 223 229 227 210 200 200 204 209 213 219 222 223 229 234 235 235 237 236 234 232 224 221 231 234 232 236 228 210 210 218 222 219 220 221 217
294 295 300 299 292 281 263 246 249 264 267 274 285 282 276 276 271 266 261 256 259 274 273 260 263 275 275 286 303 288 277 273 253 253 267 250 249 259 245 229 228 230 234 239 232 220 213 210 211 213 216 220 223 221 222 229 230 214 204 206 209 210 216 223 226 227 231 234 239 242 241 236 236 236 231 232 233 228 226 219 209 215 225 224 219 223 226 224
295 296 297 294 285 282 282 278 278 281 280 284 290 285 282 290 288 282 279 268 263 268 275 270 266 269 271 277 302 307 294 291 274 262 286 264 245 257 259 235 218 222 255 254 230 221 220 219 212 210 212 216 221 225 223 229 239 232 215 211 213 212 213 220 229 231 230 235 240 245 249 245 240 242 243 243 241 232 224 214 210 224 234 233 225 222 220 219
295 296 295 295 290 286 286 285 287 289 283 285 293 288 280 283 285 287 287 279 276 277 280 279 272 271 273 271 281 291 282 291 292 280 293 285 252 253 266 247 228 228 249 276 235 219 218 222 219 214 217 216 216 223 229 233 241 243 232 220 215 215 214 215 224 232 235 237 237 238 244 248 244 243 247 251 252 248 237 225 219 228 235 240 237 224 209 202
292 293 294 294 291 293 294 288 289 293 285 282 292 292 282 274 276 292 288 269 271 285 287 286 279 274 274 270 269 273 270 274 277 275 289 285 265 262 258 242 241 254 250 255 297 230 214 212 217 218 231 235 217 217 225 230 238 247 245 237 225 216 212 213 216 222 230 237 239 236 237 242 244 245 246 248 250 250 246 240 243 245 238 238 241 237 236 221
289 289 290 290 288 292 298 295 291 292 285 280 288 292 292 284 276 296 301 277 259 265 281 291 287 280 279 276 269 266 269 272 266 264 272 268 262 264 254 242 253 279 267 251 308 285 224 208 209 214 231 248 230 221 221 219 227 243 241 239 241 231 221 220 218 214 217 228 237 241 241 240 242 244 242 240 243 246 247 247 253 256 242 235 241 247 252 252
Height
3159 3159 3158 3158 3157 3156 3156 3155 3155 3154 3153 3153 3152 3151 3151 3150 3150 3149 3149 3148 3147 3146 3146 3145 3144 3144 3143 3143 3142 3141 3142 3142 3142 3141 3143 3144 3142 3143 3147 3149 3152 3154 3157 3159 3161 3163 3165 3167 3168 3170 3170 3170 3171 3171 3171 3171 3173 3174 3174 3175 3175 3174 3174 3174 3173 3172 3172 3173 3174 3175 3175 3176 3176 3177 3177 3177 3178 3177 3178 3178 3178 3178 3179 3180 3180 3181 3181 3182
3157 3157 3156 3156 3155 3155 3154 3153 3153 3152 3152 3151 3151 3150 3149 3149 3149 3148 3148 3147 3146 3145 3144 3144 3143 3142 3142 3141 3140 3139 3139 3139 3139 3140 3141 3141 3140 3142 3145 3147 3149 3152 3154 3157 3159 3162 3164 3166 3167 3168 3169 3169 3169 3170 3170 3171 3173 3173 3174 3174 3174 3174 3174 3174 3173 3173 3173 3173 3175 3176 3175 3175 3176 3176 3177 3177 3178 3178 3178 3178 3178 3177 3177 3179 3180 3181 3182 3182
3155 3155 3154 3154 3153 3153 3152 3152 3151 3151 3150 3150 3149 3149 3148 3148 3147 3147 3146 3146 3145 3144 3143 3142 3142 3141 3140 3139 3138 3138 3137 3137 3137 3138 3139 3139 3139 3140 3143 3145 3147 3149 3152 3155 3157 3160 3162 3164 3166 3167 3168 3168 3168 3169 3169 3170 3172 3172 3173 3173 3171 3172 3172 3173 3173 3173 3173 3173 3175 3176 3175 3175 3176 3176 3177 3177 3178 3179 3178 3176 3175 3175 3176 3178 3179 3180 3181 3182
3153 3153 3152 3152 3152 3151 3150 3150 3149 3149 3149 3148 3148 3147 3147 3146 3146 3145 3145 3144 3144 3143 3142 3142 3141 3140 3139 3138 3137 3136 3136 3136 3136 3137 3137 3137 3138 3139 3141 3143 3145 3148 3150 3153 3155 3157 3160 3162 3164 3165 3166 3166 3167 3168 3168 3169 3171 3171 3170 3170 3171 3171 3172 3171 3172 3172 3172 3173 3174 3175 3176 3175 3175 3176 3176 3176 3176 3178 3177 3175 3175 3175 3176 3177 3178 3179 3181 3182
3151 3151 3150 3150 3149 3149 3148 3148 3147 3147 3147 3146 3146 3145 3145 3145 3144 3144 3143 3143 3142 3142 3141 3140 3140 3139 3138 3136 3136 3135 3135 3135 3134 3135 3136 3136 3138 3139 3140 3142 3144 3146 3148 3150 3152 3155 3157 3160 3162 3164 3165 3165 3167 3167 3166 3167 3170 3170 3168 3170 3171 3170 3170 3171 3171 3171 3171 3172 3173 3174 3175 3174 3175 3176 3176 3175 3174 3175 3173 3173 3175 3176 3177 3177 3178 3179 3180 3181
3149 3149 3148 3148 3147 3147 3146 3146 3145 3145 3145 3144 3144 3143 3143 3143 3142 3142 3142 3141 3140 3140 3140 3139 3139 3138 3137 3135 3134 3134 3134 3134 3132 3133 3135 3135 3136 3138 3139 3141 3142 3144 3146 3148 3150 3153 3155 3157 3160 3163 3164 3165 3166 3165 3164 3165 3169 3170 3168 3168 3169 3168 3169 3169 3170 3170 3170 3172 3172 3174 3175 3174 3175 3175 3175 3175 3174 3174 3172 3172 3174 3176 3177 3178 3178 3179 3179 3180
3147 3147 3146 3146 3145 3144 3144 3144 3143 3143 3143 3142 3142 3141 3141 3141 3140 3140 3140 3139 3139 3138 3138 3138 3137 3137 3136 3134 3133 3132 3132 3133 3132 3132 3132 3134 3135 3136 3138 3139 3141 3142 3144 3146 3148 3150 3153 3155 3157 3160 3163 3164 3164 3164 3163 3163 3167 3168 3167 3166 3165 3166 3167 3167 3168 3168 3168 3171 3172 3173 3174 3174 3175 3175 3175 3175 3173 3172 3172 3172 3174 3176 3178 3178 3178 3179 3179 3180
3145 3145 3144 3143 3143 3142 3142 3141 3141 3141 3140 3140 3140 3139 3139 3138 3138 3138 3138 3137 3137 3136 3136 3136 3136 3135 3135 3133 3131 3131 3131 3132 3132 3131 3131 3133 3134 3135 3136 3137 3139 3141 3142 3145 3146 3149 3151 3153 3155 3158 3160 3162 3163 3163 3163 3164 3165 3166 3165 3165 3164 3165 3166 3166 3167 3168 3168 3170 3172 3173 3174 3175 3175 3174 3175 3175 3173 3172 3172 3173 3175 3176 3177 3177 3178 3179 3179 3180
3143 3142 3142 3141 3140 3140 3139 3139 3138 3138 3138 3138 3137 3137 3137 3136 3136 3136 3136 3135 3135 3134 3134 3134 3134 3133 3133 3132 3130 3130 3130 3130 3131 3131 3131 3132 3132 3133 3135 3136 3137 3139 3141 3143 3145 3147 3149 3150 3153 3157 3158 3160 3162 3162 3163 3164 3164 3164 3164 3163 3163 3164 3165 3164 3165 3168 3167 3166 3169 3172 3173 3174 3175 3175 3175 3174 3172 3171 3171 3173 3174 3176 3176 3177 3177 3178 3179 3180
3141 3140 3139 3139 3138 3137 3137 3136 3136 3136 3135 3135 3135 3135 3134 3134 3134 3133 3133 3133 3132 3132 3132 3132 3131 3131 3131 3130 3129 3129 3129 3128 3128 3129 3130 3130 3131 3131 3132 3134 3135 3137 3139 3141 3143 3145 3146 3149 3152 3156 3158 3159 3161 3160 3161 3161 3161 3162 3162 3163 3163 3163 3164 3162 3163 3167 3167 3164 3165 3169 3172 3174 3174 3174 3175 3173 3171 3171 3171 3173 3174 3175 3175 3176 3177 3177 3179 3179
3139 3138 3137 3136 3135 3135 3134 3134 3133 3133 3133 3133 3132 3132 3132 3131 3131 3131 3131 3131 3130 3130 3130 3129 3129 3129 3128 3128 3128 3128 3128 3128 3127 3127 3128 3128 3129 3131 3131 3132 3133 3135 3137 3139 3141 3143 3146 3148 3151 3155 3157 3158 3158 3159 3159 3158 3158 3158 3159 3161 3162 3163 3163 3161 3161 3164 3167 3164 3163 3167 3171 3173 3173 3174 3174 3172 3171 3171 3171 3172 3174 3174 3174 3175 3176 3177 3178 3179
3137 3136 3135 3134 3133 3132 3132 3131 3131 3130 3130 3130 3130 3130 3129 3129 3128 3128 3128 3128 3128 3127 3127 3127 3126 3126 3125 3125 3125 3127 3127 3127 3127 3126 3126 3126 3127 3129 3130 3130 3132 3134 3136 3137 3140 3142 3145 3147 3149 3152 3154 3156 3157 3158 3157 3157 3157 3157 3157 3157 3158 3159 3160 3159 3159 3162 3165 3163 3162 3166 3170 3172 3172 3173 3173 3171 3170 3170 3170 3172 3173 3174 3174 3175 3175 3176 3177 3178
3135 3134 3133 3132 3131 3130 3129 3129 3128 3128 3128 3127 3127 3127 3126 3126 3126 3125 3126 3126 3125 3124 3124 3124 3123 3123 3122 3121 3123 3125 3125 3125 3126 3126 3126 3126 3126 3127 3128 3129 3130 3132 3134 3136 3138 3141 3144 3146 3147 3149 3152 3153 3155 3156 3157 3157 3158 3158 3158 3157 3157 3156 3156 3158 3159 3160 3163 3161 3160 3163 3167 3169 3170 3171 3172 3171 3170 3169 3169 3171 3173 3173 3173 3174 3175 3176 3177 3177
3132 3132 3131 3130 3129 3128 3127 3127 3126 3126 3125 3125 3125 3124 3124 3124 3123 3122 3123 3123 3122 3122 3122 3121 3121 3120 3118 3118 3121 3123 3122 3123 3123 3123 3125 3126 3127 3127 3127 3128 3129 3130 3133 3135 3137 3139 3142 3145 3146 3147 3149 3150 3152 3154 3155 3156 3157 3157 3157 3157 3157 3155 3154 3156 3157 3157 3160 3159 3158 3161 3164 3167 3169 3171 3170 3169 3170 3169 3169 3170 3172 3173 3173 3174 3174 3175 3176 3177
3131 3130 3129 3128 3127 3126 3125 3124 3124 3123 3123 3123 3122 3122 3121 3121 3120 3120 3120 3119 3119 3119 3119 3119 3118 3116 3114 3115 3119 3120 3119 3119 3120 3121 3123 3124 3125 3126 3126 3127 3128 3130 3131 3133 3135 3137 3140 3143 3145 3145 3146 3148 3150 3152 3152 3152 3153 3154 3155 3154 3154 3154 3152 3152 3154 3155 3157 3157 3157 3158 3162 3165 3167 3170 3168 3168 3170 3168 3168 3169 3171 3172 3173 3174 3174 3174 3176 3177
3129 3128 3127 3126 3125 3124 3123 3122 3122 3121 3121 3120 3119 3119 3119 3118 3117 3117 3116 3116 3116 3116 3117 3116 3114 3113 3112 3113 3115 3117 3117 3117 3118 3120 3121 3121 3121 3124 3126 3126 3127 3129 3130 3132 3133 3135 3137 3140 3142 3144 3145 3147 3148 3149 3150 3151 3150 3151 3152 3151 3152 3153 3152 3150 3151 3153 3155 3156 3156 3157 3161 3163 3164 3168 3167 3166 3169 3168 3167 3168 3170 3171 3172 3173 3173 3174 3175 3176
3127 3126 3125 3124 3123 3122 3121 3120 3119 3119 3119 3118 3117 3117 3117 3115 3114 3114 3114 3113 3113 3113 3113 3113 3111 3110 3111 3111 3112 3114 3115 3115 3116 3117 3118 3118 3119 3122 3124 3125 3126 3127 3129 3131 3132 3134 3136 3137 3139 3141 3142 3144 3145 3148 3149 3148 3148 3148 3149 3150 3149 3150 3150 3149 3148 3151 3153 3153 3154 3156 3160 3161 3162 3165 3166 3165 3168 3168 3167 3167 3169 3170 3171 3172 3173 3173 3174 3175
3124 3124 3123 3122 3121 3120 3119 3118 3117 3117 3117 3116 3114 3114 3114 3112 3110 3111 3111 3110 3110 3110 3110 3110 3108 3107 3109 3110 3110 3112 3113 3113 3114 3115 3115 3116 3117 3120 3121 3123 3125 3126 3128 3130 3130 3132 3134 3135 3137 3138 3139 3139 3141 3143 3143 3143 3145 3146 3146 3148 3148 3147 3147 3147 3147 3148 3150 3151 3152 3155 3158 3160 3160 3162 3164 3164 3166 3168 3167 3166 3168 3169 3170 3171 3172 3173 3173 3174
3122 3121 3121 3120 3119 3118 3117 3116 3116 3114 3114 3114 3113 3112 3111 3109 3109 3108 3106 3106 3106 3107 3107 3106 3104 3105 3107 3108 3109 3110 3111 3112 3112 3113 3114 3114 3116 3117 3119 3121 3123 3126 3127 3128 3128 3130 3132 3133 3134 3133 3133 3134 3136 3138 3139 3141 3145 3145 3144 3145 3146 3146 3144 3144 3146 3146 3147 3149 3150 3152 3156 3158 3159 3160 3162 3162 3164 3166 3167 3166 3167 3168 3169 3170 3171 3171 3172 3173
3119 3118 3118 3118 3118 3116 3115 3114 3114 3113 3112 3112 3111 3110 3108 3106 3106 3105 3102 3102 3103 3103 3104 3103 3100 3100 3103 3106 3108 3108 3109 3112 3112 3112 3113 3114 3114 3115 3117 3119 3121 3124 3124 3125 3126 3128 3130 3130 3128 3127 3128 3131 3134 3136 3138 3142 3144 3143 3142 3142 3143 3144 3142 3142 3144 3143 3145 3148 3149 3151 3154 3156 3157 3159 3161 3161 3162 3164 3165 3165 3166 3167 3167 3168 3169 3170 3171 3172
3115 3115 3115 3115 3115 3114 3112 3112 3112 3110 3109 3109 3109 3108 3106 3104 3103 3102 3099 3098 3100 3099 3099 3100 3099 3096 3098 3104 3106 3105 3106 3109 3111 3112 3112 3112 3113 3114 3115 3116 3119 3120 3121 3123 3125 3127 3127 3125 3123 3124 3128 3131 3134 3136 3138 3140 3141 3141 3141 3140 3140 3141 3140 3140 3142 3141 3141 3145 3148 3149 3151 3154 3155 3156 3158 3160 3161 3162 3164 3164 3165 3165 3166 3166 3168 3168 3169 3171
3113 3112 3111 3112 3112 3112 3110 3109 3109 3108 3107 3106 3105 3105 3104 3102 3101 3100 3096 3093 3095 3097 3094 3096 3097 3093 3094 3100 3103 3103 3102 3102 3105 3109 3110 3110 3111 3111 3112 3114 3115 3117 3119 3121 3123 3123 3122 3118 3120 3125 3129 3131 3133 3134 3136 3137 3138 3139 3139 3138 3137 3137 3138 3138 3139 3139 3138 3140 3144 3147 3149 3151 3153 3154 3156 3158 3160 3161 3162 3163 3163 3164 3164 3165 3166 3167 3168 3169
3110 3108 3108 3108 3109 3110 3108 3107 3107 3106 3105 3104 3103 3102 3101 3100 3100 3098 3094 3090 3090 3093 3092 3092 3092 3092 3093 3094 3099 3101 3098 3097 3100 3104 3106 3107 3108 3109 3110 3112 3113 3115 3117 3117 3118 3118 3116 3115 3120 3125 3128 3129 3131 3132 3134 3135 3136 3136 3136 3136 3135 3134 3135 3136 3137 3138 3135 3136 3140 3143 3146 3149 3150 3152 3154 3155 3157 3160 3161 3162 3162 3163 3163 3163 3164 3165 3166 3167
3107 3106 3105 3105 3106 3107 3106 3105 3105 3103 3103 3101 3100 3100 3100 3100 3098 3095 3092 3087 3084 3086 3089 3090 3088 3088 3089 3092 3095 3096 3094 3095 3097 3099 3102 3103 3105 3107 3108 3109 3111 3113 3113 3114 3115 3114 3113 3115 3120 3123 3125 3127 3128 3129 3131 3132 3132 3132 3133 3133 3133 3133 3134 3133 3136 3137 3136 3136 3137 3140 3144 3145 3147 3149 3151 3154 3156 3157 3158 3160 3161 3161 3161 3162 3163 3164 3164 3165
3103 3102 3102 3102 3102 3103 3104 3103 3102 3101 3100 3098 3098 3100 3099 3099 3097 3093 3091 3086 3080 3081 3084 3085 3084 3084 3086 3089 3089 3090 3092 3093 3093 3096 3099 3100 3102 3104 3105 3107 3109 3109 3110 3112 3113 3111 3111 3116 3119 3120 3121 3123 3124 3125 3126 3127 3128 3129 3129 3130 3130 3131 3132 3131 3133 3135 3135 3134 3134 3138 3141 3141 3142 3144 3147 3151 3153 3154 3155 3157 3158 3159 3159 3160 3161 3162 3163 3164
3100 3098 3098 3098 3097 3099 3101 3100 3099 3099 3096 3096 3097 3099 3098 3096 3096 3093 3091 3086 3077 3076 3078 3078 3080 3081 3081 3083 3083 3088 3091 3087 3088 3094 3097 3097 3099 3101 3103 3104 3104 3105 3107 3110 3111 3109 3110 3114 3116 3116 3117 3119 3120 3121 3122 3125 3126 3125 3125 3128 3129 3129 3130 3129 3129 3131 3131 3130 3130 3132 3136 3138 3139 3140 3142 3146 3148 3150 3152 3154 3155 3156 3157 3157 3158 3159 3160 3162
3096 3095 3094 3094 3092 3092 3097 3098 3096 3095 3094 3094 3095 3096 3096 3095 3095 3093 3092 3089 3079 3074 3073 3073 3076 3077 3077 3080 3081 3084 3084 3081 3085 3090 3092 3094 3096 3098 3100 3101 3101 3102 3105 3108 3107 3105 3107 3110 3112 3113 3114 3115 3115 3116 3119 3122 3123 3121 3123 3127 3128 3128 3128 3126 3126 3128 3129 3129 3127 3127 3130 3134 3135 3136 3138 3141 3143 3146 3149 3151 3152 3153 3154 3155 3156 3157 3158 3159
3092 3091 3090 3091 3090 3087 3091 3094 3093 3092 3092 3092 3093 3094 3093 3093 3094 3092 3094 3091 3079 3072 3072 3071 3074 3074 3075 3078 3077 3078 3080 3081 3083 3084 3087 3091 3093 3094 3095 3096 3099 3099 3102 3104 3101 3101 3105 3106 3107 3109 3110 3110 3110 3113 3117 3120 3119 3119 3123 3125 3126 3126 3126 3126 3125 3124 3127 3127 3124 3123 3125 3129 3131 3133 3135 3137 3139 3141 3144 3146 3149 3149 3151 3152 3153 3154 3155 3156
3089 3087 3086 3087 3088 3084 3086 3089 3088 3089 3090 3090 3092 3092 3091 3092 3092 3091 3095 3090 3075 3070 3072 3071 3073 3074 3074 3075 3075 3076 3079 3081 3081 3082 3085 3088 3090 3091 3091 3093 3097 3098 3099 3100 3098 3099 3102 3102 3104 3106 3105 3106 3108 3111 3114 3116 3116 3118 3122 3123 3124 3124 3124 3124 3123 3123 3124 3123 3120 3120 3121 3123 3126 3128 3132 3133 3134 3136 3138 3141 3144 3145 3147 3148 3150 3152 3153 3154
3085 3084 3082 3082 3084 3083 3084 3084 3082 3084 3087 3087 3088 3089 3088 3089 3089 3091 3092 3082 3070 3069 3070 3069 3072 3074 3073 3073 3073 3074 3076 3079 3081 3082 3083 3084 3086 3089 3090 3092 3095 3097 3097 3097 3096 3097 3098 3100 3102 3102 3102 3104 3107 3109 3111 3112 3115 3118 3120 3121 3121 3121 3121 3121 3120 3121 3120 3116 3116 3118 3117 3118 3120 3121 3124 3126 3127 3129 3132 3136 3139 3141 3143 3144 3146 3149 3150 3151
3082 3081 3080 3078 3079 3080 3083 3082 3078 3080 3084 3084 3084 3086 3085 3086 3088 3087 3080 3070 3067 3068 3067 3068 3070 3071 3071 3071 3071 3071 3073 3076 3079 3080 3081 3081 3084 3086 3088 3090 3091 3093 3093 3093 3093 3094 3095 3095 3096 3098 3100 3102 3104 3106 3107 3109 3113 3115 3116 3118 3119 3118 3118 3117 3116 3117 3115 3111 3113 3116 3116 3115 3114 3114 3117 3119 3121 3124 3128 3130 3133 3136 3138 3141 3142 3145 3147 3148
3078 3077 3077 3076 3075 3076 3079 3079 3076 3077 3080 3080 3081 3082 3082 3084 3081 3074 3067 3066 3067 3064 3063 3066 3067 3067 3069 3069 3068 3069 3071 3073 3075 3077 3078 3078 3079 3079 3080 3081 3082 3085 3086 3086 3088 3091 3091 3090 3091 3094 3097 3099 3101 3102 3104 3106 3108 3110 3112 3114 3115 3115 3116 3114 3112 3111 3110 3109 3110 3113 3115 3113 3110 3111 3113 3115 3117 3120 3122 3125 3127 3131 3134 3136 3138 3141 3143 3145
3074 3073 3074 3074 3072 3072 3075 3075 3074 3075 3076 3077 3078 3077 3080 3080 3067 3058 3061 3066 3064 3061 3062 3065 3066 3067 3068 3067 3067 3069 3068 3069 3071 3074 3075 3075 3075 3075 3075 3077 3079 3079 3080 3083 3086 3087 3087 3087 3089 3091 3092 3094 3096 3097 3099 3100 3103 3105 3107 3109 3109 3110 3113 3113 3110 3108 3107 3107 3108 3110 3111 3107 3106 3108 3110 3111 3113 3115 3117 3119 3121 3124 3128 3130 3133 3136 3138 3141
3071 3069 3070 3071 3071 3069 3070 3072 3071 3071 3073 3074 3074 3074 3075 3068 3055 3053 3059 3063 3062 3060 3060 3062 3063 3065 3065 3064 3065 3066 3067 3066 3068 3071 3072 3071 3071 3071 3072 3074 3077 3078 3080 3082 3082 3083 3083 3082 3083 3085 3086 3088 3090 3092 3095 3098 3100 3101 3103 3106 3105 3104 3107 3108 3107 3106 3105 3105 3106 3107 3106 3102 3102 3105 3107 3109 3110 3111 3113 3114 3116 3119 3123 3126 3129 3132 3134 3137
3067 3065 3065 3068 3068 3066 3065 3068 3069 3068 3069 3069 3070 3069 3063 3053 3050 3055 3059 3061 3063 3063 3061 3059 3059 3059 3059 3060 3061 3062 3063 3063 3065 3068 3068 3066 3065 3065 3067 3068 3071 3075 3077 3077 3077 3079 3079 3076 3078 3081 3082 3085 3087 3088 3093 3096 3096 3097 3101 3102 3099 3098 3101 3103 3102 3103 3104 3104 3103 3102 3100 3099 3101 3103 3105 3106 3105 3107 3109 3111 3114 3117 3120 3124 3126 3129 3131 3133
3062 3062 3063 3064 3064 3063 3062 3063 3065 3065 3064 3065 3064 3058 3048 3046 3051 3056 3057 3060 3063 3063 3061 3057 3054 3055 3054 3055 3056 3058 3059 3060 3062 3063 3063 3063 3061 3061 3063 3063 3066 3069 3071 3072 3073 3075 3075 3074 3077 3079 3080 3082 3084 3085 3088 3090 3089 3092 3095 3092 3091 3097 3100 3100 3100 3101 3103 3103 3100 3098 3097 3098 3100 3100 3102 3104 3103 3105 3107 3109 3112 3113 3117 3120 3123 3125 3127 3129
3057 3057 3060 3062 3060 3060 3059 3058 3059 3060 3059 3060 3055 3046 3043 3046 3051 3054 3056 3058 3058 3059 3059 3055 3051 3051 3052 3051 3052 3054 3055 3056 3058 3057 3057 3058 3057 3057 3060 3061 3062 3064 3066 3070 3071 3071 3071 3071 3073 3076 3075 3078 3081 3083 3084 3085 3085 3087 3087 3087 3092 3098 3098 3098 3099 3100 3101 3101 3097 3095 3095 3096 3096 3096 3098 3100 3101 3103 3105 3107 3109 3110 3113 3116 3119 3121 3123 3125
3052 3052 3057 3060 3057 3055 3055 3054 3054 3055 3055 3053 3046 3041 3043 3046 3048 3051 3054 3055 3054 3054 3054 3052 3049 3047 3048 3049 3048 3050 3051 3051 3052 3053 3053 3053 3051 3051 3056 3058 3059 3060 3063 3067 3068 3069 3070 3069 3068 3071 3072 3074 3078 3080 3079 3080 3083 3084 3085 3089 3093 3093 3093 3095 3097 3097 3098 3098 3095 3093 3092 3092 3092 3093 3094 3095 3096 3099 3101 3103 3105 3106 3108 3111 3114 3117 3120 3123
3046 3047 3053 3057 3053 3049 3050 3052 3053 3052 3050 3046 3041 3040 3042 3043 3045 3049 3051 3052 3052 3051 3048 3048 3049 3046 3044 3044 3044 3046 3047 3046 3047 3049 3048 3048 3047 3047 3051 3054 3056 3057 3060 3064 3064 3065 3068 3067 3064 3066 3068 3071 3072 3072 3071 3074 3080 3084 3086 3087 3088 3088 3089 3091 3092 3092 3094 3094 3093 3092 3090 3088 3088 3091 3092 3091 3092 3094 3096 3098 3100 3102 3104 3106 3110 3114 3117 3120
3041 3043 3049 3052 3048 3045 3046 3048 3050 3049 3045 3042 3040 3040 3040 3042 3045 3047 3050 3051 3051 3050 3046 3045 3048 3046 3041 3040 3040 3041 3042 3041 3043 3044 3043 3043 3044 3044 3046 3048 3052 3055 3057 3059 3060 3062 3064 3063 3061 3062 3065 3065 3062 3061 3065 3071 3075 3079 3081 3080 3080 3083 3085 3086 3087 3087 3089 3090 3090 3090 3087 3084 3086 3090 3091 3091 3092 3093 3093 3093 3095 3097 3099 3102 3105 3109 3113 3116
3037 3038 3044 3048 3046 3043 3042 3041 3042 3043 3041 3039 3039 3039 3040 3041 3042 3043 3046 3048 3046 3045 3044 3043 3044 3043 3040 3038 3036 3036 3037 3035 3035 3038 3038 3038 3039 3039 3041 3043 3046 3051 3054 3054 3055 3056 3058 3059 3060 3059 3058 3057 3057 3058 3063 3067 3069 3071 3073 3073 3074 3077 3081 3082 3081 3080 3083 3084 3084 3086 3084 3081 3084 3088 3089 3089 3091 3092 3091 3090 3092 3095 3097 3099 3102 3105 3109 3112
3033 3033 3039 3045 3043 3040 3038 3036 3036 3037 3037 3036 3037 3038 3039 3039 3040 3040 3042 3043 3042 3041 3041 3040 3039 3038 3038 3038 3035 3034 3035 3032 3029 3031 3032 3034 3036 3036 3038 3040 3042 3045 3048 3048 3048 3052 3055 3057 3057 3055 3053 3053 3056 3058 3058 3061 3065 3068 3068 3069 3071 3074 3076 3077 3076 3076 3078 3080 3081 3083 3080 3078 3083 3086 3086 3088 3088 3088 3088 3088 3091 3094 3096 3098 3100 3102 3105 3108
3029 3027 3034 3040 3038 3036 3033 3031 3032 3033 3033 3034 3035 3036 3037 3037 3037 3038 3039 3040 3039 3039 3039 3036 3035 3035 3035 3035 3035 3033 3033 3030 3026 3024 3025 3027 3031 3034 3037 3040 3039 3040 3043 3043 3044 3048 3051 3052 3052 3052 3052 3051 3053 3055 3055 3055 3060 3062 3063 3066 3069 3070 3071 3073 3075 3077 3077 3077 3079 3081 3077 3077 3081 3083 3083 3085 3086 3084 3083 3085 3088 3091 3094 3096 3098 3099 3101 3104
3025 3024 3029 3033 3032 3031 3029 3027 3029 3031 3031 3033 3033 3033 3034 3034 3033 3034 3035 3036 3036 3037 3037 3034 3034 3034 3032 3033 3033 3031 3030 3029 3023 3020 3022 3021 3022 3027 3032 3036 3038 3036 3036 3038 3040 3042 3043 3045 3047 3049 3051 3050 3048 3049 3050 3050 3052 3055 3058 3061 3065 3067 3070 3073 3075 3076 3074 3073 3075 3077 3074 3074 3079 3082 3080 3082 3084 3083 3082 3084 3087 3089 3092 3095 3096 3096 3098 3101
3023 3022 3024 3027 3028 3027 3026 3027 3029 3029 3030 3032 3030 3030 3030 3030 3031 3032 3032 3031 3032 3033 3032 3029 3028 3029 3028 3028 3027 3024 3026 3028 3022 3017 3018 3017 3016 3019 3023 3029 3035 3035 3033 3035 3037 3037 3036 3037 3040 3041 3042 3043 3041 3040 3042 3046 3048 3050 3054 3058 3061 3064 3067 3069 3070 3070 3069 3069 3071 3071 3070 3071 3076 3080 3079 3079 3082 3084 3084 3084 3085 3087 3089 3092 3094 3094 3095 3098
3022 3021 3020 3021 3023 3023 3023 3025 3027 3027 3027 3028 3025 3025 3026 3025 3025 3026 3025 3024 3025 3026 3024 3022 3021 3020 3019 3017 3016 3016 3017 3020 3018 3015 3016 3016 3014 3014 3014 3016 3023 3028 3030 3032 3033 3032 3031 3030 3031 3032 3033 3036 3036 3037 3040 3044 3046 3046 3049 3053 3057 3060 3063 3065 3065 3063 3063 3066 3067 3066 3067 3070 3073 3075 3076 3077 3079 3081 3083 3084 3084 3085 3087 3088 3091 3092 3093 3095
3022 3020 3020 3019 3019 3018 3019 3020 3021 3021 3022 3022 3021 3020 3020 3019 3018 3019 3020 3021 3022 3020 3018 3019 3018 3016 3015 3013 3012 3012 3010 3009 3011 3012 3010 3008 3005 3005 3005 3005 3009 3014 3020 3024 3027 3027 3025 3024 3024 3026 3030 3033 3036 3039 3040 3042 3043 3043 3045 3049 3052 3056 3059 3060 3059 3058 3060 3063 3062 3063 3066 3068 3069 3072 3074 3075 3076 3078 3081 3083 3083 3084 3085 3086 3087 3089 3091 3092
3021 3020 3020 3020 3018 3017 3016 3016 3017 3016 3017 3018 3018 3017 3016 3016 3016 3017 3018 3018 3018 3018 3017 3016 3015 3014 3015 3014 3012 3010 3006 3005 3006 3005 3001 3000 3000 3000 3001 3001 3004 3008 3012 3015 3019 3020 3019 3019 3021 3023 3026 3030 3034 3037 3037 3038 3040 3041 3042 3045 3048 3051 3054 3054 3054 3056 3060 3059 3057 3061 3065 3066 3067 3070 3072 3073 3075 3076 3080 3082 3082 3083 3083 3084 3085 3086 3088 3089
3020 3018 3019 3019 3018 3016 3016 3016 3015 3014 3014 3015 3015 3014 3014 3014 3015 3016 3017 3015 3014 3015 3015 3013 3012 3012 3013 3013 3012 3011 3008 3006 3005 3002 2999 2998 2998 2997 2997 2996 2999 3004 3007 3008 3012 3015 3014 3015 3018 3021 3023 3027 3031 3033 3034 3034 3036 3038 3039 3041 3044 3046 3048 3051 3052 3055 3057 3057 3057 3060 3062 3063 3065 3067 3068 3071 3074 3075 3077 3079 3081 3081 3081 3082 3084 3085 3085 3086
3018 3017 3016 3016 3015 3015 3014 3015 3014 3013 3012 3012 3012 3012 3012 3012 3012 3013 3015 3014 3012 3012 3012 3011 3009 3009 3009 3009 3010 3010 3009 3008 3005 3002 3000 2998 2997 2998 2998 2996 2997 3001 3003 3002 3004 3009 3010 3011 3015 3020 3021 3023 3026 3029 3031 3032 3032 3034 3035 3037 3040 3041 3044 3047 3050 3052 3054 3054 3056 3059 3058 3058 3062 3065 3066 3067 3070 3072 3074 3076 3078 3081 3080 3079 3081 3083 3085 3086
3017 3016 3015 3014 3012 3012 3013 3013 3013 3012 3010 3010 3010 3009 3009 3009 3009 3009 3008 3009 3010 3009 3009 3008 3006 3005 3004 3005 3007 3008 3007 3005 3003 3002 3002 2999 2997 2999 2998 2996 2997 3000 3000 3000 3000 3004 3007 3007 3011 3016 3017 3018 3022 3025 3027 3030 3032 3032 3030 3031 3034 3037 3040 3042 3044 3047 3049 3051 3053 3054 3054 3054 3059 3063 3065 3065 3065 3067 3071 3074 3076 3078 3080 3079 3079 3080 3083 3086
3015 3014 3014 3013 3010 3010 3011 3011 3011 3010 3009 3009 3009 3008 3007 3007 3008 3007 3005 3004 3007 3007 3006 3005 3002 3001 3001 3001 3003 3005 3004 3002 2999 2999 2999 2996 2995 2996 2994 2992 2995 2998 2998 2998 2997 3000 3004 3004 3006 3012 3014 3015 3019 3022 3024 3029 3030 3024 3021 3025 3031 3034 3036 3038 3039 3042 3045 3047 3049 3050 3050 3053 3057 3060 3062 3063 3063 3063 3066 3070 3073 3075 3078 3080 3080 3080 3081 3084